Regional Weather Roundup
Issued by NWS

Home | Current Version | Previous Version | Graphics & Text | Print | Product List | Glossary On
Versions: 1 2 3 4 5 6 7 8 9 10 11 12 13 14 15 16 17 18 19 20 21 22 23 24 25 26 27 28 29 30 31 32 33 34 35 36 37 38 39 40 41 42 43 44 45 46 47 48 49
000
ASUS45 KSLC 290910
RWRUT

UTAH REGIONAL WEATHER ROUNDUP
NATIONAL WEATHER SERVICE SALT LAKE CITY UT
300 AM MDT MON JUN 29 2015

UTZ001>011-023>025-291000-

NORTHERN UTAH

CITY           SKY/WX    TMP DP  RH WIND       PRES   REMARKS
BRIGHAM CITY   CLEAR     87  34  15 SE17G25   30.01S
HILL AFB       CLEAR     78  47  33 E25G31    30.05R
LOGAN          CLEAR     86  40  19 S12       30.07S
OGDEN          CLEAR     83  45  26 W5        30.02R
PROVO AIRPORT  CLEAR     70  48  46 CALM      30.05S
SALT LAKE CITY CLEAR     86  47  25 SE10      29.99S
VERNAL         PTCLDY    77  42  28 N9        30.16R
WENDOVER       PTCLDY    81  41  24 CALM      30.00S
HEBER CITY     CLEAR     57  48  72 CALM      30.19R
WEST JORDAN    CLEAR     75  48  38 CALM      30.04S

$$

UTZ012>022-026-027-291000-

SOUTHERN/CENTRAL UTAH

CITY           SKY/WX    TMP DP  RH WIND       PRES   REMARKS
BLANDING       CLEAR     65  43  44 CALM      30.32F
BRYCE CANYON   CLEAR     54  45  71 W10       30.36S
CEDAR CITY     CLEAR     71  42  35 SE7       30.18S
DELTA          CLEAR     78  37  22 S14       30.06S
HANKSVILLE     PTCLDY    82  37  20 S6        30.06R
MILFORD        CLEAR     75  42  30 SW14      30.10S
MOAB/CYNLANDS  CLEAR     82  43  25 SE13      30.04S
PRICE          CLEAR     74  35  24 NW6       30.16S
ST GEORGE      SUNNY     84  48  28 SE10      29.98R

$$

REGIONAL REPORTS     COLORADO/ARIZONA

CITY           SKY/WX    TMP DP  RH WIND       PRES   REMARKS
CRAIG, CO      CLOUDY    68  45  43 NE7       30.25S
GRAND JUNCTION PTCLDY    78  43  28 SE16      30.11R
RIFLE          MOCLDY    73  45  36 E9        30.19R
MONTROSE       PTCLDY    74  44  34 SE10      30.23R
CORTEZ         CLEAR     68  43  40 N3        30.26R
PAGE, AZ       CLEAR     79  43  27 SE6       30.06R
GRAND CANYON   CLEAR     54  46  74 CALM      30.31F
KINGMAN        PTCLDY    79  53  40 SE9       30.04R
FLAGSTAFF      PTCLDY    62  53  72 CALM      30.37R

$$

REGIONAL REPORTS    NEVADA/IDAHO/WYOMING

CITY           SKY/WX    TMP DP  RH WIND       PRES   REMARKS
LAS VEGAS, NV  MOCLDY    95  46  18 S9        29.85S HX  91
ELY            PTCLDY    72  35  25 S10       30.22R
ELKO           CLOUDY    67  47  48 CALM      30.09R
POCATELLO, ID  CLEAR     70  49  47 E5        30.06F
BURLEY         PTCLDY    68  55  63 VRB3      30.01R
EVANSTON, WY   CLEAR     68  40  35 E13       30.31S
ROCK SPRINGS   PTCLDY    64  41  42 E6        30.33R
KEMMERER       CLEAR     61  43  51 N13       30.36F

$$


USA.gov is the U.S. government's official web portal to all federal, state and local government web resources and services.